• în Republica Moldova
  • Lista ţărilor
  • Pe 7 zile
  • Temperatura apei
  • Hartă satelitară
  • Meteo pe hartă
  • Widget-uri
  • user-avatar
    Intrare

    Meteo pe oră la Newcastle

    Astăzi, 28 Mai, Duminică

    Timp Temperatura Precipitaţii Vânt Presiune Umiditate
    00:00 +12°C° 0 mm 3 m/s 761 mmHg 92%
    01:00 +12°C° 0 mm 3 m/s 761 mmHg 91%
    02:00 +11°C° 0 mm 3 m/s 761 mmHg 89%
    03:00 +11°C° 0 mm 3 m/s 760 mmHg 88%
    04:00 +11°C° 0 mm 3 m/s 760 mmHg 86%
    05:00 +11°C° 0 mm 3 m/s 760 mmHg 85%
    06:00 +11°C° 0 mm 3 m/s 760 mmHg 85%
    07:00 +11°C° 0 mm 3 m/s 760 mmHg 84%
    08:00 +14°C° 0 mm 4 m/s 760 mmHg 77%
    09:00 +16°C° 0 mm 5 m/s 759 mmHg 70%
    10:00 +20°C° 0 mm 4 m/s 759 mmHg 62%
    11:00 +21°C° 0,1 mm 4 m/s 759 mmHg 61%
    12:00 +21°C° 0,1 mm 5 m/s 758 mmHg 61%
    13:00 +22°C° 0,1 mm 5 m/s 758 mmHg 60%
    14:00 +22°C° 0 mm 5 m/s 757 mmHg 59%
    15:00 +21°C° 0 mm 4 m/s 757 mmHg 59%
    16:00 +21°C° 0 mm 4 m/s 757 mmHg 59%
    17:00 +19°C° 0 mm 4 m/s 757 mmHg 62%
    18:00 +18°C° 0 mm 4 m/s 758 mmHg 66%
    19:00 +15°C° 0 mm 5 m/s 758 mmHg 69%
    20:00 +15°C° 0 mm 4 m/s 759 mmHg 70%
    21:00 +14°C° 0 mm 4 m/s 759 mmHg 70%
    22:00 +14°C° 0 mm 4 m/s 759 mmHg 70%
    23:00 +13°C° 0 mm 4 m/s 760 mmHg 70%

    Mâine, 29 Mai, Luni

    Timp Temperatura Precipitaţii Vânt Presiune Umiditate
    00:00 +13°C° 0 mm 4 m/s 760 mmHg 71%
    01:00 +12°C° 0 mm 4 m/s 760 mmHg 71%
    02:00 +12°C° 0 mm 4 m/s 760 mmHg 71%
    03:00 +10°C° 0 mm 5 m/s 761 mmHg 71%
    04:00 +9°C° 0 mm 5 m/s 761 mmHg 71%
    05:00 +9°C° 0 mm 5 m/s 761 mmHg 72%
    06:00 +9°C° 0 mm 5 m/s 762 mmHg 72%
    07:00 +8°C° 0 mm 5 m/s 762 mmHg 73%
    08:00 +10°C° 0 mm 5 m/s 763 mmHg 64%
    09:00 +12°C° 0 mm 5 m/s 763 mmHg 56%
    10:00 +14°C° 0 mm 6 m/s 764 mmHg 48%
    11:00 +15°C° 0 mm 5 m/s 763 mmHg 43%
    12:00 +16°C° 0 mm 5 m/s 763 mmHg 38%
    13:00 +18°C° 0 mm 4 m/s 763 mmHg 33%
    14:00 +17°C° 0 mm 4 m/s 763 mmHg 39%
    15:00 +17°C° 0 mm 3 m/s 763 mmHg 45%
    16:00 +16°C° 0 mm 2 m/s 763 mmHg 51%
    17:00 +13°C° 0 mm 2 m/s 764 mmHg 57%
    18:00 +10°C° 0 mm 2 m/s 765 mmHg 62%
    19:00 +8°C° 0 mm 1 m/s 765 mmHg 68%
    20:00 +8°C° 0 mm 2 m/s 766 mmHg 65%
    21:00 +8°C° 0 mm 2 m/s 766 mmHg 62%
    22:00 +8°C° 0 mm 2 m/s 767 mmHg 59%
    23:00 +8°C° 0 mm 3 m/s 767 mmHg 61%

    Poimâine, 30 Mai, Marţi

    Timp Temperatura Precipitaţii Vânt Presiune Umiditate
    00:00 +7°C° 0 mm 3 m/s 767 mmHg 63%
    01:00 +7°C° 0 mm 3 m/s 766 mmHg 66%
    02:00 +5°C° 0 mm 3 m/s 766 mmHg 67%
    03:00 +5°C° 0 mm 3 m/s 766 mmHg 69%
    04:00 +5°C° 0 mm 3 m/s 766 mmHg 71%
    05:00 +4°C° 0 mm 3 m/s 766 mmHg 72%
    06:00 +4°C° 0 mm 3 m/s 767 mmHg 74%
    07:00 +4°C° 0 mm 3 m/s 767 mmHg 75%
    08:00 +7°C° 0 mm 3 m/s 767 mmHg 66%
    09:00 +10°C° 0 mm 3 m/s 767 mmHg 58%
    10:00 +12°C° 0 mm 3 m/s 767 mmHg 49%
    11:00 +14°C° 0 mm 3 m/s 766 mmHg 44%
    12:00 +16°C° 0 mm 3 m/s 765 mmHg 40%
    13:00 +18°C° 0 mm 3 m/s 765 mmHg 35%
    14:00 +17°C° 0 mm 3 m/s 764 mmHg 39%
    15:00 +17°C° 0 mm 3 m/s 764 mmHg 43%
    16:00 +16°C° 0 mm 3 m/s 764 mmHg 47%
    17:00 +13°C° 0 mm 3 m/s 765 mmHg 51%
    18:00 +12°C° 0 mm 3 m/s 765 mmHg 55%
    19:00 +10°C° 0 mm 4 m/s 766 mmHg 59%
    20:00 +10°C° 0 mm 4 m/s 766 mmHg 61%
    21:00 +8°C° 0 mm 4 m/s 766 mmHg 63%
    22:00 +8°C° 0 mm 4 m/s 766 mmHg 65%
    23:00 +8°C° 0 mm 4 m/s 766 mmHg 67%

    31 Mai, Miercuri

    Timp Temperatura Precipitaţii Vânt Presiune Umiditate
    00:00 +7°C° 0 mm 4 m/s 765 mmHg 69%
    01:00 +7°C° 0 mm 4 m/s 765 mmHg 71%
    02:00 +7°C° 0 mm 4 m/s 765 mmHg 72%
    03:00 +7°C° 0 mm 4 m/s 765 mmHg 73%
    04:00 +7°C° 0 mm 4 m/s 765 mmHg 75%
    05:00 +7°C° 0 mm 4 m/s 765 mmHg 75%
    06:00 +7°C° 0 mm 4 m/s 766 mmHg 75%
    07:00 +7°C° 0 mm 4 m/s 766 mmHg 74%
    08:00 +8°C° 0,1 mm 4 m/s 766 mmHg 73%
    09:00 +9°C° 0,1 mm 5 m/s 766 mmHg 71%
    10:00 +12°C° 0,1 mm 5 m/s 766 mmHg 69%
    11:00 +13°C° 0,1 mm 5 m/s 766 mmHg 62%
    12:00 +14°C° 0,1 mm 5 m/s 765 mmHg 56%
    13:00 +15°C° 0,1 mm 5 m/s 764 mmHg 49%
    14:00 +15°C° 0,1 mm 5 m/s 765 mmHg 49%
    15:00 +14°C° 0,1 mm 5 m/s 765 mmHg 48%
    16:00 +14°C° 0,1 mm 5 m/s 765 mmHg 47%
    17:00 +13°C° 0 mm 6 m/s 766 mmHg 50%
    18:00 +10°C° 0 mm 6 m/s 766 mmHg 53%
    19:00 +9°C° 0 mm 7 m/s 767 mmHg 55%
    20:00 +9°C° 0,7 mm 8 m/s 767 mmHg 61%
    21:00 +7°C° 0,7 mm 8 m/s 768 mmHg 66%
    22:00 +7°C° 0,7 mm 9 m/s 768 mmHg 71%
    23:00 +7°C° 0,3 mm 9 m/s 768 mmHg 69%

    1 Iunie, Joi

    Timp Temperatura Precipitaţii Vânt Presiune Umiditate
    00:00 +7°C° 0,3 mm 8 m/s 768 mmHg 67%
    01:00 +6°C° 0,3 mm 8 m/s 768 mmHg 65%
    02:00 +6°C° 0,1 mm 8 m/s 768 mmHg 66%
    03:00 +6°C° 0,1 mm 8 m/s 768 mmHg 67%
    04:00 +5°C° 0,1 mm 8 m/s 769 mmHg 68%
    05:00 +5°C° 0,2 mm 7 m/s 769 mmHg 68%
    06:00 +5°C° 0,2 mm 7 m/s 770 mmHg 69%
    07:00 +5°C° 0,2 mm 7 m/s 770 mmHg 70%
    08:00 +6°C° 0,2 mm 7 m/s 770 mmHg 66%
    09:00 +9°C° 0,2 mm 7 m/s 770 mmHg 62%
    10:00 +10°C° 0,2 mm 7 m/s 770 mmHg 58%
    11:00 +11°C° 0,2 mm 7 m/s 770 mmHg 56%
    12:00 +12°C° 0,2 mm 7 m/s 769 mmHg 55%
    13:00 +15°C° 0,2 mm 7 m/s 769 mmHg 53%
    14:00 +14°C° 0,2 mm 7 m/s 769 mmHg 54%
    15:00 +14°C° 0,2 mm 6 m/s 769 mmHg 56%
    16:00 +14°C° 0,2 mm 6 m/s 769 mmHg 57%
    17:00 +11°C° 0,1 mm 6 m/s 770 mmHg 62%
    18:00 +10°C° 0,1 mm 6 m/s 770 mmHg 67%
    19:00 +8°C° 0,1 mm 6 m/s 771 mmHg 72%
    20:00 +8°C° 0,1 mm 6 m/s 771 mmHg 71%
    21:00 +8°C° 0,1 mm 6 m/s 771 mmHg 70%
    22:00 +8°C° 0,1 mm 6 m/s 771 mmHg 69%
    23:00 +8°C° 0,1 mm 6 m/s 771 mmHg 69%

    2 Iunie, Vineri

    Timp Temperatura Precipitaţii Vânt Presiune Umiditate
    00:00 +6°C° 0,1 mm 7 m/s 771 mmHg 70%
    01:00 +6°C° 0,1 mm 7 m/s 770 mmHg 70%
    02:00 +6°C° 0 mm 7 m/s 770 mmHg 70%
    03:00 +5°C° 0 mm 6 m/s 770 mmHg 71%
    04:00 +5°C° 0 mm 6 m/s 770 mmHg 72%
    05:00 +5°C° 0,1 mm 6 m/s 770 mmHg 72%
    06:00 +5°C° 0,1 mm 6 m/s 771 mmHg 72%
    07:00 +5°C° 0,1 mm 6 m/s 771 mmHg 73%
    08:00 +8°C° 0,1 mm 7 m/s 771 mmHg 70%
    09:00 +10°C° 0,1 mm 7 m/s 771 mmHg 66%
    10:00 +12°C° 0,1 mm 7 m/s 771 mmHg 63%
    11:00 +12°C° 0,2 mm 7 m/s 770 mmHg 65%
    12:00 +14°C° 0,2 mm 7 m/s 770 mmHg 67%
    13:00 +15°C° 0,2 mm 7 m/s 770 mmHg 69%
    14:00 +15°C° 0,1 mm 7 m/s 770 mmHg 71%
    15:00 +15°C° 0,1 mm 7 m/s 770 mmHg 72%
    16:00 +15°C° 0,1 mm 7 m/s 770 mmHg 74%
    17:00 +14°C° 0,1 mm 7 m/s 770 mmHg 75%
    18:00 +14°C° 0,1 mm 6 m/s 771 mmHg 77%
    19:00 +14°C° 0,1 mm 6 m/s 771 mmHg 78%
    20:00 +14°C° 0,1 mm 6 m/s 771 mmHg 79%
    21:00 +14°C° 0,1 mm 6 m/s 771 mmHg 79%
    22:00 +13°C° 0,1 mm 6 m/s 771 mmHg 80%
    23:00 +13°C° 0,1 mm 6 m/s 771 mmHg 82%
    Arată mai mult